Wind_Speed
18 18 17 16 16 18 18 18 18 21 27 29 31 35 37 38 39 39 39 41 42 41 42 42 42 43 44 44 44 42 41 39 38 36 35 34 34 36 37 36 35 35 34 33 33 34 33 31 28 27 26 26 25 24 23 22 23 23 21 20 20 21 21
17 16 16 16 16 18 18 18 19 23 27 29 32 35 36 38 39 40 40 42 43 43 42 43 43 44 44 44 43 42 41 40 38 37 35 34 32 33 35 36 35 35 35 35 34 33 33 32 30 29 28 28 27 26 25 24 23 24 24 22 21 22 23
17 16 16 17 17 18 18 18 20 24 27 30 32 34 36 39 41 42 42 42 42 42 42 43 43 44 44 43 42 41 41 40 39 38 37 36 35 33 34 35 35 35 35 35 34 33 33 33 32 30 29 29 29 28 27 26 25 25 25 25 24 24 24
18 19 19 19 19 18 17 17 19 24 28 32 34 36 38 40 42 43 43 43 43 41 42 43 42 42 42 41 41 41 41 41 40 39 39 38 37 35 33 34 35 36 35 35 34 33 33 33 33 32 31 30 30 30 29 28 26 25 26 27 26 26 26
20 19 17 17 16 15 15 16 19 24 28 32 35 37 39 40 40 40 41 42 43 43 44 44 42 40 40 40 40 40 41 41 40 40 39 38 37 35 34 35 35 36 36 35 34 33 33 33 34 34 33 31 31 31 31 30 29 27 27 27 28 28 27
18 17 15 14 14 15 16 17 20 27 30 32 35 37 37 37 37 38 39 40 42 42 42 43 42 40 39 39 39 38 38 39 39 39 38 37 36 35 35 35 35 35 36 35 34 33 33 34 34 35 35 33 32 32 32 32 31 30 29 29 30 30 30
18 17 16 16 15 16 17 16 20 27 31 32 34 34 34 35 37 38 39 39 40 40 40 41 42 42 40 40 39 38 38 39 39 38 38 37 36 35 35 35 34 35 35 35 34 34 34 35 35 36 36 35 34 33 32 33 33 32 32 32 32 32 31
20 18 18 18 17 16 16 16 18 24 28 29 29 29 32 34 35 36 37 38 39 40 40 42 42 42 42 41 40 40 40 40 39 38 38 37 36 36 36 35 35 35 35 35 36 35 35 35 36 36 36 36 35 34 33 34 34 34 33 33 33 33 33
20 20 20 19 18 16 16 15 18 22 25 27 28 29 31 32 33 35 37 38 38 39 40 42 42 43 42 41 40 41 40 39 38 38 38 37 37 37 37 37 36 35 35 37 38 37 36 36 36 36 37 36 36 35 35 35 35 35 35 35 35 34 34
19 19 19 18 17 16 15 14 15 17 19 22 26 29 31 32 33 34 35 36 37 39 41 41 41 41 40 40 40 40 38 37 37 37 37 37 37 38 38 37 36 35 36 37 37 38 38 38 37 37 37 37 36 36 36 36 36 36 36 36 36 36 36
18 17 16 17 16 15 14 14 14 14 15 20 25 28 31 32 32 33 34 36 38 39 40 40 39 39 40 40 39 38 37 37 36 36 37 37 37 37 37 37 36 36 36 36 36 37 38 38 38 37 37 38 38 38 38 38 38 38 38 38 38 38 37
15 15 16 17 17 15 15 15 15 15 16 20 25 28 30 32 32 32 34 36 38 38 39 40 39 39 39 39 38 38 38 38 38 38 39 39 37 37 36 36 36 36 36 36 36 37 37 38 38 38 39 40 40 40 40 40 39 39 39 39 39 38 38
13 13 16 17 16 16 16 15 16 17 17 20 25 28 30 31 32 32 33 34 36 36 37 39 39 39 39 38 38 38 39 40 41 40 40 39 39 38 37 37 37 37 37 37 37 36 37 37 38 39 40 41 41 41 41 41 40 40 40 40 39 39 38
16 16 16 16 16 17 18 17 17 18 17 19 24 28 29 31 32 32 33 33 34 35 36 37 38 38 38 38 38 39 40 41 41 40 39 39 39 39 38 38 38 38 38 38 37 37 37 38 39 40 40 40 41 41 41 40 40 40 40 40 40 39 39
18 18 17 17 17 17 18 18 17 17 17 18 23 26 27 29 31 32 32 33 34 35 36 36 36 37 37 37 38 39 39 39 38 38 38 38 38 39 39 39 38 38 38 38 39 39 38 38 39 39 39 40 40 41 40 39 40 41 42 42 41 41 41
18 18 18 17 17 16 17 18 18 18 18 17 20 25 27 28 31 33 33 33 34 35 35 36 35 35 36 36 38 39 38 37 37 37 37 37 38 39 39 39 38 38 39 39 40 40 40 39 38 38 39 40 40 40 39 39 40 43 44 44 43 42 41
18 18 18 18 18 17 16 15 15 16 17 17 21 25 27 28 31 32 32 32 34 34 35 36 36 36 37 37 38 38 38 38 37 37 38 39 39 39 40 40 39 39 39 40 40 40 40 39 38 38 39 39 40 40 40 41 42 44 45 46 45 44 42
18 18 18 18 18 16 15 14 14 15 16 17 22 26 27 28 29 30 31 32 33 34 34 35 36 36 37 37 37 37 37 37 37 37 38 39 40 40 40 40 39 39 39 39 40 40 40 40 40 40 39 39 40 40 41 42 44 45 46 46 46 46 43
16 16 17 17 16 15 15 14 14 15 17 19 24 28 30 31 30 30 32 33 33 34 34 34 35 36 36 37 37 37 38 38 37 37 38 38 39 39 38 38 39 40 40 39 39 38 38 40 40 40 40 39 39 40 42 44 45 46 46 46 47 46 45
15 14 14 15 15 14 14 13 12 15 19 23 28 31 33 33 33 34 34 34 34 35 34 34 34 35 35 36 37 37 38 38 37 38 38 38 38 37 37 38 39 40 39 38 37 37 38 39 40 40 41 41 41 42 42 43 45 45 46 46 46 46 45
11 12 11 11 12 12 12 11 11 12 17 23 26 27 29 30 31 31 32 33 34 34 35 34 34 34 35 36 37 37 38 38 38 38 38 38 38 37 38 39 39 39 39 37 37 38 40 40 39 40 41 42 43 42 41 43 45 44 45 46 46 45 45
9 10 11 11 11 11 12 13 14 15 18 21 23 24 25 27 27 27 28 31 33 33 34 34 32 33 34 35 36 37 37 37 37 37 37 37 37 38 39 39 39 40 39 37 37 38 38 39 39 40 40 41 42 42 42 44 44 44 44 45 45 44 44
8 8 7 7 9 11 13 16 18 19 20 20 21 23 24 25 26 26 26 28 30 30 31 31 31 32 33 35 36 37 38 38 37 37 37 37 37 38 39 39 40 39 38 37 37 37 37 39 40 40 40 40 40 41 43 44 43 42 43 43 42 43 43
11 10 8 6 7 8 10 14 17 19 21 21 21 23 24 24 25 25 25 25 27 28 28 29 30 31 33 34 36 37 38 39 38 38 38 37 37 38 39 39 39 38 37 37 37 37 38 38 38 38 38 39 40 41 42 42 41 39 39 40 40 41 42
13 12 12 12 13 12 12 14 15 14 14 14 12 14 20 25 26 25 23 25 26 26 26 28 31 32 32 34 36 38 39 40 40 39 39 38 38 39 39 38 38 37 37 37 37 37 37 35 34 35 37 38 38 39 39 38 36 34 35 37 38 39 40
14 12 12 14 16 18 19 19 18 15 14 12 9 5 9 18 24 24 24 25 26 25 27 31 33 33 33 34 36 38 40 40 41 40 39 39 39 39 39 38 37 36 36 36 36 36 35 34 33 33 35 35 35 34 34 34 32 31 31 32 33 35 38
14 16 16 16 18 20 21 21 20 18 17 17 13 9 5 6 14 18 20 21 22 26 31 33 33 32 32 33 35 37 39 40 41 41 40 40 39 38 37 37 36 35 35 35 34 34 34 33 33 32 32 32 32 31 31 30 30 31 31 30 30 31 33
14 16 18 19 21 21 19 19 20 20 19 18 15 11 8 4 4 6 10 15 20 26 29 29 30 31 31 31 34 35 37 38 39 40 40 39 38 36 34 34 34 34 34 33 33 33 33 32 32 31 30 30 30 30 30 29 30 31 31 31 31 31 32
13 13 14 16 18 20 18 16 16 17 18 18 16 13 11 7 4 2 2 9 15 18 20 22 25 27 28 30 32 34 35 36 37 38 37 36 36 34 33 32 33 32 33 32 31 30 30 30 30 29 28 27 26 26 27 28 30 31 32 32 32 32 32
12 11 12 13 15 17 17 14 12 14 16 17 17 16 14 11 8 6 6 8 9 10 14 19 23 25 26 28 31 32 33 35 35 36 36 35 35 34 32 31 31 31 32 32 30 28 27 27 27 27 25 24 22 20 21 24 26 28 30 30 30 30 30
11 11 11 13 15 17 16 13 12 14 15 17 18 17 16 14 10 8 9 10 9 9 12 18 22 24 26 27 28 30 31 31 32 34 34 33 34 33 31 31 30 29 29 30 29 28 26 25 26 25 24 22 19 17 17 20 21 22 23 24 25 26 27
9 10 11 11 13 14 15 15 15 14 14 16 17 17 17 16 13 11 10 9 8 10 13 17 22 25 26 26 27 28 28 29 29 31 31 32 33 33 32 32 31 29 29 29 28 27 26 25 25 24 23 21 20 18 16 15 15 14 13 14 15 16 18
8 9 10 10 11 13 14 13 11 10 10 12 15 17 17 16 14 13 12 9 6 10 15 18 23 25 25 25 25 26 27 28 27 27 27 28 30 31 31 31 31 29 28 28 27 25 24 23 23 22 21 19 19 18 16 14 14 13 12 11 11 10 10
8 8 10 12 12 13 12 11 9 8 9 10 14 16 16 15 15 14 12 10 7 8 14 19 22 24 24 24 25 25 26 26 26 26 25 23 23 23 23 24 27 27 28 28 27 25 24 22 22 23 22 21 20 18 17 15 15 15 14 13 12 12 10
7 8 9 10 11 11 10 10 9 8 9 10 12 14 14 14 14 13 11 9 8 5 11 17 19 21 22 23 24 24 24 24 25 26 25 22 19 17 15 15 18 21 24 26 28 27 26 25 25 25 23 22 23 23 21 19 18 16 15 13 11 10 9
5 6 7 8 9 9 9 8 7 7 8 9 10 11 12 12 12 12 10 8 6 4 7 14 16 18 20 22 22 23 23 24 25 26 26 24 23 20 16 11 11 15 18 21 23 25 26 26 26 25 25 24 23 23 22 21 20 17 15 13 11 9 9
6 5 5 7 8 8 7 6 6 7 9 10 8 8 9 9 10 11 10 8 6 4 5 11 15 15 16 18 20 22 25 26 26 25 26 25 25 25 22 19 14 10 11 14 17 19 21 22 22 22 25 25 23 21 19 19 18 17 15 13 12 11 10
10 8 6 7 8 6 5 4 6 7 8 8 7 6 5 5 6 8 9 8 7 5 5 9 13 14 14 15 18 22 25 26 26 27 27 26 26 27 28 27 26 23 19 16 16 17 17 18 19 19 21 23 24 24 23 21 19 17 15 14 13 12 12
Wind_Direction
184 186 184 183 184 187 189 185 182 183 185 186 184 183 183 182 183 183 184 186 188 189 190 190 191 192 195 197 199 200 201 203 204 204 204 204 204 202 202 202 203 206 209 211 213 213 214 215 213 213 213 214 216 218 221 223 223 222 224 224 222 221 222
185 188 184 185 187 189 190 186 182 182 185 187 186 185 184 184 183 184 185 187 189 190 190 192 193 194 197 198 199 200 201 203 204 205 206 207 207 205 204 204 204 207 210 214 217 217 215 215 214 213 214 215 218 220 222 224 224 223 223 224 224 224 225
188 189 186 188 190 188 187 185 184 184 184 186 187 186 186 186 186 186 186 187 189 190 190 192 194 195 197 198 198 200 201 202 204 204 206 208 209 209 207 206 206 208 211 214 218 218 217 216 215 215 214 216 218 220 223 225 226 225 223 224 226 226 227
190 190 189 191 190 187 185 185 186 186 185 187 188 188 188 188 188 188 188 188 188 189 191 193 194 195 197 197 198 199 200 202 204 205 207 209 210 211 210 209 210 210 211 214 217 218 218 217 216 216 216 217 218 220 222 225 228 227 224 224 226 227 229
192 190 191 190 188 186 185 186 188 187 187 187 188 190 190 189 188 188 189 190 190 191 193 194 195 196 197 198 199 200 201 202 204 206 208 210 211 211 212 213 212 212 213 215 217 218 218 217 216 216 216 217 219 219 221 224 227 227 224 224 226 227 228
191 189 189 188 186 188 188 188 189 188 188 188 188 190 190 188 187 188 190 190 191 192 193 194 196 197 198 199 201 202 202 203 205 207 208 209 211 211 213 214 214 214 214 215 217 218 218 217 216 215 215 217 218 219 220 222 224 226 224 224 226 227 228
187 186 187 187 186 188 188 188 189 189 189 189 189 189 187 187 188 188 189 190 191 192 192 194 196 197 198 200 201 202 203 204 205 207 208 209 211 212 213 214 214 215 214 215 216 217 218 217 216 216 216 216 218 219 220 221 222 224 224 224 226 227 229
185 185 187 187 186 186 186 186 188 189 188 187 188 188 187 188 188 188 189 190 191 191 192 194 195 197 198 199 201 203 204 205 205 206 208 209 211 212 213 214 215 215 214 214 216 216 216 216 216 216 216 216 218 219 220 221 221 222 222 223 225 226 228
184 185 187 185 183 184 184 185 184 184 185 185 185 187 188 188 188 189 190 190 190 192 194 196 196 198 198 199 202 204 204 205 205 206 208 209 211 213 214 214 215 215 214 215 215 215 216 216 215 215 216 216 218 220 221 221 222 222 221 222 224 225 226
185 186 187 182 182 185 183 181 181 181 184 185 185 187 188 190 191 190 190 189 190 193 195 196 197 197 198 200 203 204 204 205 205 206 208 209 212 214 215 215 215 215 215 215 215 216 216 217 216 216 216 217 219 220 221 222 222 221 221 223 224 225 226
183 183 182 180 181 182 177 177 179 182 186 186 185 187 189 192 192 191 190 190 192 194 195 196 196 197 198 200 202 203 204 205 205 206 208 210 212 214 216 216 216 216 216 216 216 216 217 217 218 218 218 219 220 221 222 222 222 221 221 223 224 226 227
182 178 176 179 181 179 178 180 182 183 186 186 187 188 191 193 193 192 193 194 194 194 194 195 196 196 198 200 201 202 203 204 205 207 209 210 212 214 216 217 217 217 217 217 216 216 217 217 218 218 219 221 222 222 223 223 222 222 222 223 224 225 226
178 176 177 179 180 179 179 182 183 183 186 187 188 190 191 193 193 194 195 196 196 196 195 195 195 196 197 199 200 202 204 204 205 207 208 210 211 213 215 216 217 218 218 218 218 217 217 218 218 219 220 221 222 222 223 223 222 222 223 224 224 224 225
174 177 180 181 181 182 182 183 184 184 184 186 188 189 191 193 194 195 196 196 196 196 196 196 195 196 197 198 200 203 205 205 206 207 208 210 211 213 214 216 217 217 218 218 218 218 218 218 219 219 220 221 222 223 223 222 222 223 223 224 224 225 225
175 177 180 182 183 184 184 183 182 183 184 185 186 187 188 191 194 196 196 196 196 196 196 196 195 197 197 198 202 204 206 206 206 207 208 209 211 213 214 215 216 217 218 218 219 219 219 220 220 220 220 222 223 224 223 222 222 223 224 224 224 225 226
178 178 179 183 185 186 187 186 184 183 181 183 186 187 187 189 192 194 195 196 196 196 196 195 195 197 198 200 203 205 206 206 206 207 208 209 211 213 214 215 216 217 217 218 219 219 220 220 221 221 221 222 223 224 224 223 225 226 226 226 225 225 226
179 179 181 184 186 186 186 187 186 183 182 184 187 188 187 189 191 193 194 195 195 196 195 194 195 197 199 202 204 205 205 206 206 206 207 209 211 213 214 215 215 216 218 218 219 219 220 220 221 221 222 223 224 225 224 225 227 228 228 228 228 227 226
183 181 183 187 188 184 181 183 185 185 186 187 188 189 189 189 189 191 193 194 195 195 195 195 196 198 200 202 204 205 205 206 206 206 207 209 210 212 214 214 215 217 218 218 219 219 219 220 220 221 222 223 225 226 226 227 229 229 230 230 230 229 228
185 185 186 187 186 179 175 178 181 186 190 188 188 191 192 190 189 191 194 194 194 195 195 195 197 198 200 202 204 204 205 206 206 207 208 210 211 213 213 214 216 217 218 219 219 219 220 221 221 221 222 223 225 226 227 229 230 231 231 232 233 232 230
181 185 187 187 184 179 177 178 179 184 189 190 190 192 193 193 194 195 195 193 193 195 195 196 197 198 200 202 203 205 205 205 206 207 209 210 211 212 213 214 217 218 219 220 220 220 221 222 222 222 222 223 225 227 229 230 232 232 232 233 234 234 232
168 173 179 181 178 172 171 173 174 180 189 191 191 191 191 194 197 196 195 194 194 195 197 197 197 198 199 201 202 204 204 204 205 207 208 209 210 211 213 215 217 218 219 219 220 221 222 223 223 224 223 223 225 228 230 232 233 233 234 234 235 235 235
150 161 169 172 172 171 172 174 177 182 187 188 187 188 191 195 195 193 192 194 195 196 197 198 199 199 199 200 201 203 203 203 204 206 207 208 208 210 212 214 216 217 217 218 220 222 224 224 225 226 225 225 225 227 231 234 234 234 235 236 236 236 235
114 125 137 150 155 158 164 171 175 178 179 181 184 189 193 194 192 190 190 193 196 197 198 199 201 200 199 200 201 202 202 203 203 204 206 207 207 209 212 213 216 216 216 216 219 221 223 224 226 226 227 226 225 226 230 234 235 235 235 237 236 235 235
73 80 81 87 104 115 131 149 161 170 176 179 185 192 194 192 189 189 189 192 196 197 199 202 204 203 201 200 201 201 201 203 203 203 205 206 207 209 212 213 215 216 215 216 218 221 223 225 226 228 228 228 227 227 229 233 235 236 236 237 237 236 235
64 66 66 67 73 77 88 109 124 136 147 154 165 183 192 192 189 188 190 194 197 198 201 205 207 206 203 201 201 201 202 203 203 204 205 205 207 210 212 213 215 215 215 216 219 222 225 226 228 229 230 231 231 231 231 233 235 236 236 237 237 237 237
63 61 61 61 64 67 72 80 85 82 76 71 72 105 177 190 190 189 192 195 196 199 205 209 209 208 206 203 201 201 202 202 203 204 205 206 208 210 212 213 214 214 214 216 218 222 224 226 228 230 232 233 234 234 233 233 234 236 236 236 236 236 237
59 57 55 52 54 58 61 61 59 57 52 46 46 53 75 166 186 193 197 196 197 203 209 211 211 210 207 204 201 201 202 202 203 204 206 207 209 210 211 212 212 212 213 214 217 220 223 224 226 230 233 234 234 234 235 235 235 235 236 236 235 234 234
54 52 49 46 46 49 51 49 46 44 40 36 35 33 31 51 140 182 199 203 208 212 212 212 211 210 207 204 202 201 202 202 203 204 206 207 208 208 209 211 211 211 212 213 215 217 220 222 225 228 231 234 234 234 235 236 237 238 238 237 236 235 234
54 50 46 42 40 43 47 47 43 40 37 32 27 20 10 7 13 14 238 226 228 226 222 218 213 210 207 204 202 202 202 202 203 203 204 205 206 206 207 208 209 210 210 211 212 215 218 221 223 226 229 232 233 234 235 236 238 239 239 239 238 238 238
54 49 46 41 36 39 42 41 40 43 41 34 27 20 9 357 343 322 291 274 268 250 231 224 218 211 206 203 202 201 201 201 201 202 202 203 203 204 204 205 205 206 208 209 210 212 215 218 219 221 224 226 226 227 230 232 233 233 234 235 235 236 237
56 54 50 40 35 38 43 45 45 43 38 31 26 20 12 5 353 328 303 292 286 264 236 225 218 212 208 204 202 200 199 198 199 200 201 201 201 201 201 201 201 202 204 206 207 209 212 214 215 217 218 216 214 212 215 218 221 223 227 230 231 232 234
56 59 56 45 40 46 55 59 53 44 35 28 20 14 10 10 9 359 340 316 280 252 236 223 214 211 208 205 201 199 196 194 195 196 198 198 199 200 200 199 199 199 200 202 204 207 209 211 211 212 212 210 206 203 200 198 199 202 207 213 219 223 227
48 51 49 45 49 57 62 63 57 46 38 28 16 10 6 6 8 5 356 342 291 243 229 219 210 206 204 202 199 195 192 190 189 190 192 194 196 198 199 199 198 198 198 199 201 204 207 207 206 206 205 201 197 192 185 177 171 167 164 167 173 176 182
45 41 41 43 53 62 61 57 52 47 37 25 16 11 5 2 360 356 352 349 327 253 222 211 205 202 199 197 193 190 188 187 183 180 180 183 187 190 192 195 197 199 200 201 202 203 203 203 203 204 203 197 186 174 163 158 159 156 151 152 156 155 155
49 46 44 49 59 68 65 53 44 37 29 22 14 7 360 356 354 348 342 343 338 282 217 203 198 195 192 190 187 185 182 177 174 172 169 165 162 160 165 181 194 198 201 204 206 207 208 206 205 205 203 193 182 173 164 156 153 154 154 152 154 155 158
47 49 55 64 68 67 63 51 36 20 14 14 11 2 353 346 344 339 330 325 330 303 213 193 186 185 184 182 179 176 170 165 164 165 161 154 146 139 131 137 171 190 197 202 205 206 209 210 207 203 199 189 179 176 174 164 153 151 152 150 147 147 144
20 27 52 75 77 68 56 45 27 11 4 2 3 360 349 340 336 332 322 307 300 290 214 184 176 173 174 173 170 166 162 159 157 155 151 146 142 136 123 108 104 125 161 181 189 194 199 201 196 193 193 187 173 161 160 157 151 148 148 143 139 136 130
4 7 31 66 75 70 58 41 24 14 9 6 6 1 351 345 340 330 317 298 277 261 216 179 168 162 157 156 157 157 156 155 151 147 143 138 135 133 126 113 98 90 95 115 137 150 160 167 165 163 168 171 164 153 148 146 143 142 140 136 134 134 128
Height
696 699 700 702 706 708 710 713 717 721 725 729 732 735 739 742 745 749 753 757 760 764 768 771 773 776 779 781 784 787 791 794 798 800 802 804 805 806 808 810 813 815 816 818 819 821 823 825 827 828 830 832 833 834 836 837 839 840 841 842 843 844 844
696 697 698 700 703 705 707 709 713 718 722 725 728 732 735 738 741 745 748 752 756 760 764 767 770 773 775 778 781 784 788 791 795 798 800 802 804 805 807 808 810 812 814 816 817 819 822 824 825 827 828 830 831 833 834 836 837 838 840 841 842 842 843
693 694 695 696 698 700 703 706 709 713 717 722 725 728 731 734 737 740 743 748 752 757 761 764 767 769 772 776 779 781 785 788 792 795 797 799 801 803 805 807 809 811 812 814 816 818 820 822 823 825 827 828 830 831 833 834 835 837 838 839 840 841 841
687 687 688 691 692 695 700 702 705 709 713 717 720 724 727 730 733 737 740 744 749 753 757 761 764 767 770 773 776 779 781 785 788 791 794 796 799 801 803 805 806 808 810 812 814 816 818 820 822 823 825 826 828 829 831 832 834 835 836 837 838 839 839
683 683 686 690 692 696 698 700 702 705 709 713 717 721 724 727 731 735 739 742 745 749 753 757 762 765 769 771 774 776 778 782 785 788 791 793 796 799 801 802 804 806 808 809 812 814 816 818 819 821 823 824 826 827 829 830 832 833 834 835 836 837 838
679 682 685 689 691 693 694 696 698 701 705 709 713 718 721 726 729 732 736 739 743 747 750 755 759 762 766 768 771 774 777 780 782 785 788 791 794 796 798 800 802 803 805 808 810 811 813 815 817 818 820 821 823 825 826 828 829 831 832 833 834 835 836
674 677 680 683 686 689 691 693 696 698 702 706 711 716 719 723 726 729 733 736 740 744 748 751 755 758 762 765 768 772 774 777 779 782 786 788 791 794 795 798 799 801 803 805 807 809 810 812 814 815 817 819 820 822 823 825 827 828 830 831 832 833 834
667 670 674 677 680 684 687 690 693 696 701 705 710 714 717 720 723 726 730 733 737 741 744 747 751 754 758 761 765 767 770 773 776 779 783 786 788 791 793 795 796 798 801 802 804 806 807 809 810 812 814 816 817 819 820 822 824 825 827 828 829 830 831
660 664 666 670 674 679 683 686 689 694 699 703 707 710 714 718 720 723 726 729 734 737 740 743 747 750 754 758 761 763 767 770 773 776 779 782 785 787 789 792 794 796 798 799 801 803 804 806 807 809 811 813 814 816 817 819 821 823 824 825 826 827 828
658 661 663 666 671 674 678 683 688 693 697 700 703 707 711 714 716 720 723 727 731 733 736 740 744 748 752 755 758 761 765 768 770 773 776 779 781 784 786 789 791 793 795 796 798 800 802 803 805 807 808 810 811 813 814 816 817 819 821 822 823 824 824
655 659 663 667 671 674 679 683 687 691 693 696 699 703 706 710 713 717 720 723 726 728 733 737 741 745 748 751 755 758 762 765 767 770 772 775 778 781 784 787 789 791 792 794 795 797 798 800 802 804 805 807 808 809 811 812 814 816 817 818 819 820 821
655 658 662 667 670 674 678 681 684 687 690 692 695 699 702 706 709 713 716 719 722 725 729 733 737 741 744 748 752 755 758 760 763 765 768 771 775 778 781 784 786 788 790 791 793 794 795 797 799 800 802 803 804 806 807 808 810 812 813 814 815 816 818
654 657 660 663 667 672 675 678 681 683 686 688 691 695 698 702 706 710 713 716 720 723 726 729 733 736 740 744 747 750 753 755 757 760 763 767 771 775 778 780 783 785 786 788 790 791 793 794 795 796 798 799 801 802 803 805 807 808 809 811 812 813 815
652 656 659 661 665 669 672 675 678 679 682 685 688 692 696 699 703 706 710 713 717 720 724 727 730 733 736 740 743 746 748 750 754 757 760 764 767 771 774 776 779 781 783 785 787 788 789 790 791 793 794 796 797 798 800 802 804 805 806 807 809 810 811
651 655 659 662 664 666 668 671 673 676 678 681 685 689 693 696 700 703 706 710 713 716 720 724 727 730 733 736 738 741 744 748 751 754 757 761 764 767 770 772 775 777 779 781 783 784 786 787 788 790 791 793 794 795 797 799 800 801 802 803 804 805 806
650 652 656 659 661 663 665 667 668 670 674 678 682 685 688 692 695 698 702 705 709 713 716 721 725 727 730 732 734 738 742 745 748 751 754 757 760 763 766 769 772 774 775 777 778 780 782 784 786 787 788 789 790 792 794 795 795 796 797 798 800 801 802
647 649 652 654 656 659 662 664 667 669 672 675 677 680 684 687 690 694 698 702 705 709 713 717 721 723 726 728 731 735 738 741 744 747 750 752 755 758 761 764 768 770 771 773 774 776 778 780 782 783 784 786 787 788 790 790 791 791 792 794 795 797 799
643 646 648 650 652 655 659 663 666 669 670 672 674 678 681 683 687 691 694 698 702 706 710 714 716 719 722 725 728 731 734 737 740 743 745 748 751 754 757 761 764 765 767 769 770 772 774 776 777 778 780 782 783 784 785 785 786 787 789 790 791 794 796
641 643 643 645 648 652 656 659 662 665 667 669 671 674 677 680 684 687 690 694 699 703 707 710 712 715 718 721 724 727 730 733 736 739 742 744 747 751 754 758 759 761 763 765 767 769 771 771 773 775 776 778 779 779 780 780 781 783 785 786 788 790 793
638 640 641 642 645 648 651 654 657 661 663 666 668 670 673 677 680 682 686 691 695 699 702 705 708 711 714 717 720 723 726 729 732 735 738 741 744 748 751 753 755 757 760 762 765 766 767 767 769 770 772 773 774 774 775 776 777 779 781 783 784 787 789
636 638 640 642 644 647 649 652 655 659 661 663 666 669 672 675 677 681 685 688 691 694 697 701 704 706 710 713 715 718 721 724 728 731 734 737 741 744 747 749 751 753 756 759 761 761 762 763 765 766 767 769 770 771 771 771 773 775 777 779 781 783 786
635 637 639 640 642 645 646 649 652 655 658 661 665 668 671 673 676 680 683 685 688 691 694 697 700 702 705 708 711 714 717 721 724 727 730 734 737 739 741 743 745 748 751 754 756 757 759 760 761 762 763 765 766 767 767 767 768 771 773 775 778 781 783
634 636 638 638 640 642 643 646 649 653 657 660 664 667 669 672 675 677 680 683 686 688 691 693 695 698 701 703 706 710 713 717 720 723 726 729 732 734 736 738 741 744 747 750 752 753 754 755 756 757 759 761 762 763 763 763 765 768 770 772 775 778 779
636 637 640 640 641 643 645 648 650 653 657 660 663 665 667 670 673 675 678 681 682 686 688 690 692 694 696 699 702 706 709 712 715 718 721 724 727 729 732 734 737 740 743 745 747 748 749 751 752 754 756 757 758 759 760 760 763 766 768 770 773 774 776
640 641 643 643 645 647 648 651 653 656 659 661 664 666 667 669 671 673 676 678 680 683 684 685 687 690 692 696 699 702 705 708 711 714 716 719 722 725 727 730 733 736 739 741 743 744 746 749 751 752 752 753 755 756 758 759 761 764 766 767 770 771 772
644 645 646 647 649 650 651 653 656 659 663 664 665 667 667 668 670 671 673 675 677 679 680 681 683 686 689 692 695 698 701 703 706 709 712 715 717 720 723 726 729 732 735 737 739 741 743 745 747 748 749 750 752 754 756 758 760 762 762 764 766 768 769
647 648 649 651 652 653 653 655 658 660 663 666 667 668 669 669 670 671 672 674 675 675 675 678 681 683 686 689 691 694 696 699 701 704 707 710 713 716 719 722 725 728 730 733 735 737 739 741 743 744 745 747 749 751 753 755 757 758 759 760 762 763 764
651 652 654 655 655 655 657 658 660 662 664 667 668 670 670 670 671 671 672 673 673 673 674 677 679 681 683 685 688 690 692 695 698 700 704 707 710 713 716 719 722 724 727 729 732 733 735 737 739 741 742 744 746 748 750 752 753 754 754 756 757 758 759
656 658 659 659 659 660 660 662 664 665 667 668 669 670 671 671 671 671 671 671 671 673 675 676 677 679 680 683 685 687 689 692 694 697 701 704 707 710 713 716 718 721 723 726 728 730 732 734 736 738 739 741 743 745 746 748 749 749 750 751 752 754 755
661 662 663 663 665 664 664 666 668 669 670 670 670 671 671 670 670 670 670 670 670 672 673 674 675 677 678 680 682 684 686 689 692 695 698 700 704 707 710 712 715 718 720 722 725 727 729 731 733 735 736 738 740 742 744 745 745 745 746 747 749 751 752
666 666 667 668 668 668 669 670 670 671 671 671 671 672 672 671 670 669 668 669 670 670 671 671 673 675 676 677 679 681 684 687 689 692 695 698 701 704 706 709 712 715 717 720 722 724 726 728 730 732 733 736 738 740 740 741 741 742 743 744 746 748 749
670 670 671 672 672 672 672 672 673 673 674 673 674 674 673 672 670 669 668 668 668 668 669 670 671 672 674 676 678 680 682 685 688 690 693 696 698 701 703 706 708 711 714 716 718 721 722 724 727 729 731 733 736 737 738 738 739 740 741 742 744 746 747
672 672 673 674 674 675 675 675 676 677 677 677 676 675 674 672 671 670 669 668 667 667 667 668 669 670 672 674 676 678 681 683 686 689 692 695 697 699 701 703 705 708 710 712 715 717 719 722 724 726 728 731 733 734 735 736 738 739 740 741 743 744 746
674 674 675 675 675 676 676 676 677 678 678 678 677 676 675 673 671 671 670 668 667 666 666 666 667 668 670 672 675 677 679 682 685 688 691 694 696 698 700 702 704 706 707 709 712 714 716 719 721 723 726 728 730 732 734 736 737 738 740 741 742 744 745
678 678 678 678 677 677 677 678 678 678 678 678 677 676 675 674 673 672 671 669 668 667 666 666 667 667 669 671 673 676 678 681 685 687 689 692 694 697 700 702 703 705 706 708 710 711 714 716 718 720 723 725 727 729 732 734 736 737 739 740 742 743 744
682 682 680 679 679 679 678 679 679 679 679 679 677 677 676 675 674 673 672 671 670 668 667 666 666 667 669 670 672 675 678 681 684 686 688 690 693 696 699 702 703 704 706 707 709 710 712 714 715 717 720 722 725 728 730 732 734 736 738 739 741 742 743
684 683 681 680 679 679 680 681 681 681 681 680 678 677 677 676 675 674 673 672 671 669 668 667 667 668 669 671 672 675 677 680 683 685 688 690 692 695 698 701 704 705 706 707 708 710 711 713 714 717 718 720 723 727 731 733 734 736 737 739 740 741 742
685 684 683 681 680 681 682 682 682 682 681 680 678 678 677 677 676 675 674 673 672 671 670 669 668 669 670 672 673 675 677 679 682 685 688 691 693 695 697 700 704 708 710 710 710 710 711 713 715 718 720 721 723 726 729 732 734 735 737 738 740 741 742